Погода в Железнодорожном

Украина / Днепропетровская область     48°25′52″N   36°29′30″E
темп.,
°C
ветер,
м/с
пор.,
м/с
влажн.,
%
обл.,
%
осадки,
мм/ч
давл.,
гПа
погр.,
м
19 апреля, пн
пн1900:00+10ю2266100 0.0 101639
03:00+9юз2269100 0.0 101634
06:00+8ю2272100 0.0 101535
09:00+11ююз2261100 0.0 1015360
12:00+15юз1246100 0.1 10141693
15:00+15ююз224998 0.3 10141487
18:00+14з115197 0.1 10131089
21:00+12ссз2365100 0.4 101348
20 апреля, вт
вт2000:00+11св336982 0.0 101152
03:00+10св367082 0.0 1010156
06:00+10всв3876100 0.1 1007292
09:00+10св4892100 2.5 1005415
12:00+10св61194100 5.3 1001807
15:00+12ююз698896 10.2 999703
18:00+11юз3593100 1.9 997237
21:00+9зсз91490100 3.4 1001868
21 апреля, ср
ср2100:00+9з71190100 0.3 1006635
03:00+9зюз5991100 0.3 1009414
06:00+8юз5991100 0.2 1011410
09:00+8юз4787100 0.3 1013348
12:00+14зюз67515 0.1 10141819
15:00+16зюз784274 0.1 10142355
18:00+15зюз5750100 0.0 1015925
21:00+11зсз0168100 0.1 101710
22 апреля, чт
чт2200:00+11ю2370100 0.0 101873
03:00+9ююз3475100 0.0 101977
06:00+9ю2489100 0.6 1019125
09:00+12ююз4672100 0.8 1020543
12:00+15ююз5756100 1.3 10201615
15:00+16ююз555094 2.4 10191764
18:00+14юз466497 0.7 1020694
21:00+11ююз33765 0.9 102129
23 апреля, пт
пт2300:00+9ююз358373 0.0 102195
03:00+10ююз3885100 0.0 1021216
06:00+9ююз3787100 0.1 1021210
09:00+11ююз467499 0.1 1021309
12:00+17ююз67475 0.0 10201917
15:00+18юз674172 0.0 10182560
18:00+16юз475277 0.0 1018480
21:00+13ююз5116386 0.1 1018352